Location: Kaseke
(18.0171°S, 31.0526°E)
Time: 12:31:13
(UTC+00:00)

Spot 2 - Pass Details

Date: 14 July 2020
Orbit: 571 x 773 km, 98.7° (Epoch: 07 August)

Event Time Altitude Azimuth Distance (km) Brightness Sun altitude
Rises 02:23:01 0° 12° (NNE) 3,225 8.1 -28.9°
Reaches altitude 10° 02:25:19 10° 12° (NNE) 2,309 7.3 -28.4°
Enters shadow 02:30:00 75° 355° (N) 802 4.5 -27.3°
